Back to catalog

THORAD AGENA D DEB

AliveLEO
NORAD 42510·DEBRIS·🇺🇸 United States

Launched Apr 8, 1970 from Vandenberg Space Force Base

Loading…

Next Passes (next 24 hours)

TLE

StaleSource: Space-Track

Epoch: Sep 3, 2026, 20:33 UTC

1 42510U 70025RQ  26246.85646806  .00000642  00000-0  64154-3 0  9994
2 42510 100.0393 262.7973 0003443 208.1083 151.9883 13.82242633643206

Track THORAD AGENA D DEB in real time with AllMySat

Download on the App Store